Weather reports worldwide

Advertisment
Loch Glascarnoch, United Kingdom (3031): temperature & dewpoint: 23.09.2020 00:00:00 - 29.09.2020 00:00:00 (BST)Loch Glascarnoch, United Kingdom (3031): temperature -20cm & temperature -100cm: 23.09.2020 00:00:00 - 29.09.2020 00:00:00 (BST)Loch Glascarnoch, United Kingdom (3031): wind speed & gusts: 23.09.2020 00:00:00 - 29.09.2020 00:00:00 (BST)Loch Glascarnoch, United Kingdom (3031): wind direction: 23.09.2020 00:00:00 - 29.09.2020 00:00:00 (BST)Loch Glascarnoch, United Kingdom (3031): reduced air pressure: 23.09.2020 00:00:00 - 29.09.2020 00:00:00 (BST)Loch Glascarnoch, United Kingdom (3031): visibility: 23.09.2020 00:00:00 - 29.09.2020 00:00:00 (BST)Loch Glascarnoch, United Kingdom (3031): sunshine duration: 23.09.2020 00:00:00 - 29.09.2020 00:00:00 (BST)Loch Glascarnoch, United Kingdom (3031): precipitation: 23.09.2020 00:00:00 - 29.09.2020 00:00:00 (BST)
Date & Time tt [°C] td [°C] tt -20cm [°C] tt -100cm [°C] ff [km/h] ff [kn] fx [km/h] fx [kn] dd ppp [hPa] vv [km] sd [min] rr [mm]
29.09.2020 00:00:00 5,8 4,5 - - 13 7 - - WSW 1013,4 40 0 0,0
28.09.2020 23:00:00 7,2 5,7 - - 2 1 - - S 1012,7 45 0 0,0
28.09.2020 22:00:00 7,5 6,1 - - 4 2 - - E 1012,2 45 0 0,0
28.09.2020 21:00:00 6,3 4,7 - - 8 4 - - WNW 1011,8 50 0 0,0
28.09.2020 20:00:00 7,0 5,3 - - 9 5 - - WSW 1011,2 45 0 0,2
28.09.2020 19:00:00 8,9 7,1 - - 8 4 - - NW 1010,3 30 0 0,0
28.09.2020 18:00:00 10,3 5,1 - - 21 11 - - WSW 1009,1 45 30 0,0
28.09.2020 17:00:00 11,1 7,6 - - 15 8 - - WSW 1008,3 50 12 1,4
28.09.2020 16:00:00 11,9 7,9 - - 18 10 - - W 1007,7 40 30 0,2
28.09.2020 15:00:00 13,1 6,2 - - 18 10 - - SW 1007,4 45 30 0,0
28.09.2020 14:00:00 13,1 7,3 - - 21 11 - - W 1007,1 30 18 0,0
28.09.2020 13:00:00 14,6 8,2 - - 22 12 - - W 1006,5 35 18 0,0
28.09.2020 12:00:00 12,4 9,7 - - 13 7 - - W 1006,5 18 0 0,0
28.09.2020 11:00:00 13,2 10,1 - - 16 9 - - W 1005,9 45 0 0,0
28.09.2020 10:00:00 9,8 8,1 10,0 10,7 11 6 - - ENE 1006,0 50 0 0,4
28.09.2020 09:00:00 9,0 7,2 - - 16 9 - - E 1005,8 40 0 0,0
28.09.2020 08:00:00 8,4 5,1 - - 11 6 - - E 1006,3 50 0 0,0
28.09.2020 07:00:00 7,5 4,8 - - 4 2 - - ENE 1007,1 40 0 0,0
28.09.2020 06:00:00 7,3 4,3 - - 5 3 - - SE 1007,5 45 0 0,0
28.09.2020 05:00:00 6,9 4,5 - - 8 4 - - ENE 1008,2 50 0 0,0
28.09.2020 04:00:00 6,5 4,1 - - 2 1 - - SSE 1009,0 40 0 0,0
28.09.2020 03:00:00 5,9 4,2 - - 8 4 - - ENE 1009,6 30 0 0,0
28.09.2020 02:00:00 4,2 3,3 - - 2 1 - - ESE 1010,5 12 0 0,0
28.09.2020 01:00:00 3,8 3,1 - - 5 3 - - SE 1011,5 21 - 0,0
28.09.2020 00:00:00 3,0 2,5 - - 4 2 - - SSE 1012,3 27 0 0,0
27.09.2020 23:00:00 3,0 1,8 - - 5 3 - - ESE 1013,0 30 0 0,0
27.09.2020 22:00:00 4,2 2,9 - - 4 2 - - E 1013,1 27 0 0,0
27.09.2020 21:00:00 6,3 4,2 - - 11 6 - - ENE 1013,1 24 0 0,0
27.09.2020 20:00:00 7,1 4,8 - - 9 5 - - ESE 1013,2 26 0 0,0
27.09.2020 19:00:00 7,6 4,9 - - 13 7 - - E 1013,5 30 0 0,0
27.09.2020 18:00:00 8,2 4,8 - - 18 10 - - E 1013,8 30 0 0,0
27.09.2020 17:00:00 8,7 4,7 - - 15 8 - - E 1014,3 30 0 0,0
27.09.2020 16:00:00 9,3 4,3 - - 11 6 - - E 1014,4 35 0 0,0
27.09.2020 15:00:00 8,9 2,6 - - 11 6 - - E 1015,1 45 0 0,0
27.09.2020 14:00:00 8,6 3,3 - - 13 7 - - ESE 1015,6 40 36 0,0
27.09.2020 13:00:00 8,3 3,8 - - 13 7 - - ESE 1015,8 26 36 0,0
27.09.2020 12:00:00 7,9 3,0 - - 13 7 - - E 1016,8 30 54 0,0
27.09.2020 11:00:00 6,7 2,5 - - 9 5 - - E 1017,6 30 48 0,0
27.09.2020 10:00:00 5,4 2,8 - - 9 5 - - ESE 1018,0 19 54 0,2
27.09.2020 09:00:00 2,8 2,7 - - 8 4 - - ENE 1018,9 25 36 0,0
27.09.2020 08:00:00 -1,4 -1,7 - - 5 3 - - E 1019,7 12 6 0,0
27.09.2020 07:00:00 -1,8 -2,3 - - 4 2 - - WNW 1020,1 18 0 0,0
27.09.2020 06:00:00 -1,2 -1,6 - - 4 2 - - WSW 1020,4 17 0 0,0
27.09.2020 05:00:00 -1,1 -1,8 - - 2 1 - - ESE 1021,0 16 0 0,0
27.09.2020 04:00:00 0,6 -0,1 - - 2 1 - - SSW 1021,6 28 0 0,0
27.09.2020 03:00:00 0,6 -0,2 - - 2 1 - - WSW 1022,0 20 0 0,0
27.09.2020 02:00:00 0,7 0,1 - - 11 6 - - W 1022,9 22 0 0,0
27.09.2020 01:00:00 -1,1 -2,0 - - 4 2 - - W 1023,2 28 - 0,0
27.09.2020 00:00:00 -0,4 -1,1 - - 4 2 - - WSW 1023,2 22 0 0,0
26.09.2020 23:00:00 0,8 -0,2 - - 8 4 - - W 1023,6 24 0 0,0
26.09.2020 22:00:00 1,6 0,3 - - 4 2 - - W 1023,5 26 0 0,0
26.09.2020 21:00:00 3,9 0,7 - - 9 5 - - N 1023,5 27 0 0,0
26.09.2020 20:00:00 5,7 1,6 - - 11 6 - - N 1022,8 28 0 0,0
26.09.2020 19:00:00 6,6 1,6 - - 4 2 - - NNE 1022,4 26 12 0,0
26.09.2020 18:00:00 8,7 2,1 - - 13 7 - - N 1021,7 30 36 0,0
26.09.2020 17:00:00 9,9 2,8 - - 16 9 - - N 1021,3 29 36 0,0
26.09.2020 16:00:00 10,8 2,2 - - 9 5 - - NNE 1021,1 40 30 0,0
26.09.2020 15:00:00 10,3 2,0 - - 16 9 - - N 1021,2 40 36 0,0
26.09.2020 14:00:00 10,3 3,1 - - 16 9 - - N 1021,2 28 24 0,0
26.09.2020 13:00:00 10,8 3,5 - - 13 7 - - N 1021,0 30 18 0,0
26.09.2020 12:00:00 9,2 3,3 - - 8 4 - - NNW 1021,0 45 18 0,0
26.09.2020 11:00:00 8,5 3,1 - - 13 7 - - N 1020,8 25 24 0,0
26.09.2020 10:00:00 8,1 4,0 - - 5 3 - - WNW 1020,0 45 48 0,0
26.09.2020 09:00:00 6,3 4,7 - - 9 5 - - NW 1019,7 45 18 0,0
26.09.2020 08:00:00 4,8 3,7 - - 13 7 - - WNW 1019,2 40 0 0,0
26.09.2020 07:00:00 4,4 3,4 - - 9 5 - - WNW 1018,5 40 0 0,0
26.09.2020 06:00:00 4,7 3,5 - - 11 6 - - WNW 1017,9 40 0 0,0
26.09.2020 05:00:00 4,4 3,3 - - 13 7 - - WNW 1017,3 45 0 0,2
26.09.2020 04:00:00 5,3 3,7 - - 11 6 - - WNW 1016,9 30 0 0,0
26.09.2020 03:00:00 5,6 4,2 - - 18 10 - - NW 1016,5 16 0 0,2
26.09.2020 02:00:00 5,6 4,6 - - 15 8 - - WNW 1016,2 6 0 0,8
26.09.2020 01:00:00 4,4 3,8 - - 8 4 - - WNW 1016,3 40 - 0,0
26.09.2020 00:00:00 4,8 4,2 - - 8 4 - - W 1016,2 24 0 0,2
25.09.2020 23:00:00 5,0 4,1 - - 11 6 - - NW 1016,3 7 0 0,4
25.09.2020 22:00:00 5,1 4,0 - - 9 5 - - WNW 1016,1 25 0 0,2
25.09.2020 21:00:00 5,0 3,5 - - 21 11 - - WNW 1016,1 28 0 0,2
25.09.2020 20:00:00 5,5 2,1 - - 22 12 - - NW 1015,8 40 0 0,0
25.09.2020 19:00:00 6,1 1,6 - - 21 11 - - WNW 1015,3 30 6 0,0
25.09.2020 18:00:00 5,9 2,6 - - 21 11 - - WNW 1015,0 35 12 0,0
25.09.2020 17:00:00 6,5 3,4 - - 18 10 50 27 NW 1014,9 24 18 0,2
25.09.2020 16:00:00 9,3 2,9 - - 24 13 - - NW 1014,3 28 42 0,0
25.09.2020 15:00:00 6,4 2,8 - - 28 15 48 26 NNW 1014,8 13 30 0,2
25.09.2020 14:00:00 9,3 5,5 - - 24 13 46 25 WNW 1013,8 40 30 0,0
25.09.2020 13:00:00 9,4 3,4 - - 11 6 - - NNW 1013,1 40 6 0,0
25.09.2020 12:00:00 8,3 4,7 - - 21 11 - - WNW 1012,7 40 0 0,0
25.09.2020 11:00:00 7,5 4,5 - - 22 12 - - W 1012,0 35 6 0,0
25.09.2020 10:00:00 7,2 4,4 11,0 11,4 16 9 - - W 1011,5 45 0 0,0
25.09.2020 09:00:00 6,7 3,9 - - 18 10 - - W 1011,1 45 0 0,0
25.09.2020 08:00:00 5,8 4,6 - - 16 9 - - WNW 1010,3 13 0 0,0
25.09.2020 07:00:00 5,8 5,3 - - 15 8 - - WNW 1009,3 50 0 0,2
25.09.2020 06:00:00 5,2 4,8 - - 9 5 - - W 1008,5 24 0 0,0
25.09.2020 05:00:00 4,9 4,2 - - 4 2 - - W 1007,9 15 0 0,0
25.09.2020 04:00:00 5,1 4,7 - - 8 4 - - W 1007,3 45 0 0,0
25.09.2020 03:00:00 3,8 3,6 - - 8 4 - - W 1006,9 15 0 0,0
25.09.2020 02:00:00 1,9 1,4 - - 4 2 - - W 1006,6 50 0 0,0
25.09.2020 01:00:00 3,0 2,6 - - 11 6 - - W 1006,0 50 - 0,0
25.09.2020 00:00:00 2,3 1,7 - - 4 2 - - WNW 1005,4 45 0 0,0
24.09.2020 23:00:00 2,4 1,7 - - 4 2 - - SW 1004,8 50 0 0,0
24.09.2020 22:00:00 3,1 2,1 - - 5 3 - - WSW 1003,8 50 0 0,0
24.09.2020 21:00:00 3,8 2,5 - - 4 2 - - W 1002,8 50 0 0,0
24.09.2020 20:00:00 4,5 2,9 - - 4 2 - - SW 1001,8 50 0 0,0
24.09.2020 19:00:00 6,6 3,1 - - 4 2 - - NNW 1000,5 50 0 0,0
24.09.2020 18:00:00 8,9 2,1 - - 2 1 - - W 999,3 50 0 0,0
24.09.2020 17:00:00 9,5 1,5 - - 2 1 - - NE 998,6 50 0 0,0
24.09.2020 16:00:00 9,2 0,9 - - 5 3 - - N 998,2 45 0 0,0
24.09.2020 15:00:00 9,1 -0,1 - - 15 8 - - E 997,7 50 12 0,0
24.09.2020 14:00:00 8,9 1,7 - - 11 6 - - E 997,1 45 0 0,0
24.09.2020 13:00:00 9,2 3,2 - - 11 6 - - E 996,5 40 0 0,0
24.09.2020 12:00:00 9,0 2,7 - - 5 3 - - SE 996,0 50 12 0,0
24.09.2020 11:00:00 8,0 3,1 - - 4 2 - - S 995,9 45 54 0,0
24.09.2020 10:00:00 5,6 5,0 11,7 11,7 2 1 - - ESE 996,0 40 42 0,0
24.09.2020 09:00:00 2,3 2,2 - - 4 2 - - E 995,9 50 18 0,0
24.09.2020 08:00:00 -1,0 -1,4 - - 2 1 - - WSW 996,1 40 6 0,0
24.09.2020 07:00:00 -1,6 -2,0 - - 4 2 - - W 996,1 50 0 0,0
24.09.2020 06:00:00 -1,7 -2,1 - - 2 1 - - WSW 996,3 50 0 0,0
24.09.2020 05:00:00 -1,8 -2,3 - - 4 2 - - WNW 996,4 50 0 0,0
24.09.2020 04:00:00 -1,2 -1,7 - - 2 1 - - WNW 996,7 50 0 0,0
24.09.2020 03:00:00 -1,1 -1,8 - - 4 2 - - WNW 997,1 50 0 0,0
24.09.2020 02:00:00 -0,9 -1,6 - - 4 2 - - W 997,6 50 0 0,0
24.09.2020 01:00:00 0,0 -0,7 - - 4 2 - - WNW 998,1 50 - 0,0
24.09.2020 00:00:00 0,2 -0,6 - - 5 3 - - WNW 998,7 50 0 0,0
23.09.2020 23:00:00 0,6 -0,9 - - 2 1 - - W 999,2 50 0 0,0
23.09.2020 22:00:00 1,7 -0,1 - - 2 1 - - SW 999,4 50 0 0,0
23.09.2020 21:00:00 3,3 1,5 - - 2 1 - - SSW 999,6 50 0 0,0
23.09.2020 20:00:00 4,5 1,8 - - 5 3 - - WSW 999,6 50 0 0,0
23.09.2020 19:00:00 8,0 2,4 - - 5 3 - - SSE 999,2 50 18 0,0
23.09.2020 18:00:00 9,5 2,7 - - 9 5 - - SE 999,2 40 24 0,0
23.09.2020 17:00:00 10,6 1,7 - - 5 3 - - ENE 999,7 45 30 0,0
23.09.2020 16:00:00 9,7 2,4 - - 8 4 - - SSW 1000,5 45 24 0,0
23.09.2020 15:00:00 11,4 2,7 - - 8 4 - - WNW 1000,7 25 36 0,0
23.09.2020 14:00:00 10,7 1,4 - - 13 7 - - SSE 1001,1 40 48 0,0
23.09.2020 13:00:00 8,9 2,9 - - 8 4 - - SE 1001,8 28 6 0,0
23.09.2020 12:00:00 9,0 1,1 - - 8 4 - - WNW 1001,8 45 54 0,0
23.09.2020 11:00:00 9,6 3,2 - - 5 3 - - WSW 1002,0 50 60 0,0
23.09.2020 10:00:00 8,5 5,0 12,2 12,0 2 1 - - SSE 1002,2 35 60 0,0
23.09.2020 09:00:00 5,3 4,7 - - 2 1 - - W 1002,3 30 60 0,0
23.09.2020 08:00:00 2,1 1,7 - - 8 4 - - WNW 1002,6 45 18 0,0
23.09.2020 07:00:00 2,2 1,6 - - 8 4 - - W 1002,1 50 0 0,0
23.09.2020 06:00:00 3,6 2,7 - - 4 2 - - WNW 1001,9 50 0 0,2
23.09.2020 05:00:00 4,8 4,0 - - 11 6 - - W 1001,1 14 0 0,0
23.09.2020 04:00:00 4,6 3,3 - - 11 6 - - NNW 1000,6 50 0 0,0
23.09.2020 03:00:00 5,7 4,3 - - 21 11 - - W 1000,5 50 0 0,2
23.09.2020 02:00:00 5,9 5,1 - - 18 10 - - W 999,9 30 0 0,4
23.09.2020 01:00:00 6,1 4,9 - - 21 11 - - W 999,3 45 - 0,0
23.09.2020 00:00:00 6,2 5,8 - - 22 12 - - W 998,5 20 0 0,4

tt = temperature
td = dewpoint
tt -20cm = temperature -20cm
tt -100cm = temperature -100cm
ff = wind speed
fx = gusts
dd = wind direction
ppp = reduced air pressure
vv = visibility
sd = sunshine duration
rr = precipitation

Next stations